Homer, AK

5:07 PM AKDT on March 26, 2017 (GMT -0800)
Homer

Weather History for PAHO - September, 2012

Change the Weather History Date:

Tuesday, September 25, 2012

  Actual Average Record
Temperature  
Mean Temperature 50 °F -  
Max Temperature 54 °F 51 °F 62 °F (1936)
Min Temperature 46 °F 39 °F 22 °F (1946)
Degree Days  
Heating Degree Days 14    
Moisture  
Dew Point 38 °F    
Average Humidity 64    
Maximum Humidity 83    
Minimum Humidity 55    
Precipitation  
Precipitation 0.06 in - - ()
Sea Level Pressure  
Sea Level Pressure 29.37 in    
Wind  
Wind Speed 15 mph (ENE)    
Max Wind Speed 23 mph    
Max Gust Speed 36 mph    
Visibility 10 miles    
Events Rain    
Averages and records for this station are not official NWS values.
T = Trace of Precipitation, MM = Missing Value Source: NWS Daily Summary

Daily Weather History Graph

Daily Weather History Graph

Search for Another Location

Airport or City:

Trip Planner

Search our weather history database for the weather conditions in past years. The results will help you decide how hot, cold, wet, or windy it might be!

Date:

Astronomy

Sep. 25, 2012 Rise Set
Actual Time 7:58 AM AKDT 7:54 PM AKDT
Civil Twilight 7:17 AM AKDT 8:35 PM AKDT
Nautical Twilight 6:28 AM AKDT 9:24 PM AKDT
Astronomical Twilight 5:36 AM AKDT 10:16 PM AKDT
Moon 6:11 PM AKDT (9/25) 2:33 AM AKDT (9/25)
Length of Visible Light 13h 17m
Length of Day
11h 55m
Waxing Gibbous, 81% of the Moon is Illuminated
Sep 25
Waxing Gibbous
Sep 29
Full
Oct 7
Last Quarter
Oct 15
New
Oct 21
First Quarter

Hourly Weather History & Observations

Time (AKDT) Temp. Dew Point Humidity Pressure Visibility Wind Dir Wind Speed Gust Speed Precip Events Conditions
12:53 AM 50.0 °F 37.0 °F 61% 29.73 in 10.0 mi ENE 13.8 mph 23.0 mph N/A   Overcast
1:53 AM 50.0 °F 36.0 °F 59% 29.69 in 10.0 mi ENE 18.4 mph 23.0 mph N/A   Overcast
2:53 AM 51.1 °F 36.0 °F 56% 29.67 in 10.0 mi East 9.2 mph - N/A   Overcast
3:53 AM 50.0 °F 36.0 °F 59% 29.64 in 10.0 mi ENE 17.3 mph 23.0 mph N/A   Overcast
4:53 AM 51.1 °F 36.0 °F 56% 29.61 in 10.0 mi ENE 23.0 mph 28.8 mph N/A   Overcast
5:53 AM 51.1 °F 36.0 °F 56% 29.56 in 10.0 mi ENE 23.0 mph 33.4 mph N/A   Mostly Cloudy
6:53 AM 50.0 °F 37.0 °F 61% 29.52 in 10.0 mi NE 13.8 mph 23.0 mph N/A   Mostly Cloudy
7:53 AM 51.1 °F 36.0 °F 56% 29.49 in 10.0 mi East 19.6 mph 27.6 mph N/A   Clear
8:53 AM 51.1 °F 37.0 °F 59% 29.46 in 10.0 mi ENE 15.0 mph - N/A   Scattered Clouds
9:53 AM 50.0 °F 41.0 °F 71% 29.43 in 7.0 mi NE 18.4 mph 27.6 mph 0.00 in Rain Light Rain
11:53 AM 50.0 °F 39.9 °F 68% 29.36 in 10.0 mi East 10.4 mph - 0.00 in Rain Light Rain
12:53 PM 50.0 °F 39.9 °F 68% 29.31 in 10.0 mi ENE 20.7 mph 28.8 mph 0.00 in Rain Light Rain
1:53 PM 50.0 °F 39.9 °F 68% 29.27 in 10.0 mi ENE 21.9 mph 31.1 mph 0.00 in Rain Light Rain
2:53 PM 50.0 °F 41.0 °F 71% 29.24 in 10.0 mi ENE 17.3 mph 25.3 mph 0.02 in Rain Light Rain
3:53 PM 50.0 °F 39.9 °F 68% 29.20 in 10.0 mi NE 16.1 mph 26.5 mph 0.01 in Rain Light Rain
4:53 PM 50.0 °F 39.0 °F 66% 29.15 in 10.0 mi NE 18.4 mph 33.4 mph 0.01 in Rain Light Rain
5:53 PM 51.1 °F 39.0 °F 63% 29.11 in 10.0 mi NE 13.8 mph 35.7 mph 0.01 in Rain Light Rain
6:53 PM 52.0 °F 37.9 °F 59% 29.07 in 10.0 mi NE 8.1 mph - 0.00 in   Overcast
7:53 PM 53.1 °F 37.0 °F 55% 29.09 in 10.0 mi East 21.9 mph 28.8 mph 0.00 in   Overcast
8:53 PM 48.9 °F 37.9 °F 66% 29.14 in 10.0 mi Variable 4.6 mph - N/A   Overcast
9:53 PM 48.9 °F 39.0 °F 69% 29.21 in 10.0 mi Variable 5.8 mph - 0.00 in Rain Light Rain
10:53 PM 48.0 °F 39.9 °F 74% 29.24 in 10.0 mi Calm Calm - 0.01 in   Overcast
11:53 PM 46.0 °F 41.0 °F 83% 29.28 in 10.0 mi Calm Calm - 0.00 in   Overcast